| time (UTC) | temp F | wind direction | speed knots | gust knots | rain 1hr in | rain 24hr in | rain mn in | humidity % | barometer mb |
| 20260506051155 | 49 | 60 | 2.6 | 2.6 | 0.00 | 0.00 | 0.01 | 87 | 1011.0 |
| 20260506050706 | 49 | 89 | 3.5 | 3.5 | 0.00 | 0.00 | 0.01 | 88 | 1011.0 |
| 20260506044823 | 49 | 138 | 3.5 | 3.5 | 0.00 | 0.00 | 0.01 | 89 | 1011.0 |
| 20260506044225 | 49 | 150 | 3.5 | 3.5 | 0.00 | 0.00 | 0.01 | 90 | 1011.0 |
| 20260506043503 | 50 | 198 | 4.3 | 4.3 | 0.00 | 0.00 | 0.01 | 91 | 1011.0 |
| 20260506043010 | 50 | 179 | 2.6 | 2.6 | 0.00 | 0.00 | 0.01 | 91 | 1011.0 |
| 20260506042506 | 50 | 168 | 3.5 | 3.5 | 0.00 | 0.00 | 0.01 | 92 | 1011.0 |
| 20260506042003 | 50 | 102 | 2.6 | 2.6 | 0.00 | 0.00 | 0.01 | 92 | 1011.0 |
| 20260506041256 | 50 | 132 | 2.6 | 2.6 | 0.00 | 0.00 | 0.01 | 92 | 1011.0 |
| 20260506040305 | 50 | 174 | 2.6 | 2.6 | 0.00 | 0.00 | 0.01 | 93 | 1011.0 |
| 20260506035805 | 50 | 120 | 2.6 | 2.6 | 0.00 | 0.00 | 0.01 | 93 | 1011.0 |
| 20260506035148 | 50 | 156 | 2.6 | 2.6 | 0.00 | 0.00 | 0.01 | 93 | 1011.0 |
| 20260506034532 | 50 | 214 | 2.6 | 2.6 | 0.00 | 0.00 | 0.01 | 93 | 1011.0 |
| 20260506033915 | 50 | 126 | 2.6 | 2.6 | 0.00 | 0.00 | 0.01 | 93 | 1011.0 |
| 20260506033423 | 50 | 206 | 3.5 | 3.5 | 0.00 | 0.00 | 0.01 | 93 | 1011.0 |
| 20260506032802 | 50 | 226 | 2.6 | 2.6 | 0.00 | 0.00 | 0.01 | 93 | 1011.0 |
| 20260506031750 | 50 | 246 | 2.6 | 2.6 | 0.00 | 0.00 | 0.01 | 92 | 1011.0 |
| 20260506031230 | 50 | 138 | 3.5 | 3.5 | 0.00 | 0.00 | 0.01 | 92 | 1011.0 |
| 20260506030729 | 50 | 174 | 2.6 | 2.6 | 0.00 | 0.00 | 0.01 | 93 | 1011.0 |
| 20260506030239 | 50 | 298 | 2.6 | 2.6 | 0.00 | 0.00 | 0.01 | 92 | 1011.0 |
| 20260506025633 | 50 | 126 | 5.2 | 5.2 | 0.00 | 0.00 | 0.01 | 92 | 1011.0 |
| 20260506025106 | 50 | 138 | 5.2 | 6.1 | 0.00 | 0.00 | 0.01 | 92 | 1011.0 |
| 20260506024442 | 50 | 90 | 2.6 | 2.6 | 0.00 | 0.00 | 0.01 | 92 | 1011.0 |
| 20260506023932 | 50 | 72 | 2.6 | 2.6 | 0.00 | 0.00 | 0.01 | 92 | 1011.0 |
| 20260506023337 | 50 | 192 | 3.5 | 3.5 | 0.00 | 0.00 | 0.01 | 92 | 1011.0 |
| 20260506022840 | 50 | 218 | 2.6 | 2.6 | 0.00 | 0.00 | 0.01 | 92 | 1011.0 |
| 20260506022231 | 50 | 156 | 2.6 | 2.6 | 0.00 | 0.00 | 0.01 | 92 | 1011.0 |
| 20260506021312 | 49 | 150 | 2.6 | 2.6 | 0.00 | 0.00 | 0.01 | 92 | 1011.0 |
| 20260506020820 | 49 | 164 | 3.5 | 3.5 | 0.00 | 0.00 | 0.01 | 92 | 1011.0 |
| 20260506020207 | 49 | 84 | 2.6 | 2.6 | 0.00 | 0.00 | 0.01 | 93 | 1011.0 |
| 20260506015659 | 49 | 30 | 3.5 | 3.5 | 0.00 | 0.00 | 0.01 | 93 | 1011.0 |
| 20260506015004 | 49 | 240 | 2.6 | 2.6 | 0.00 | 0.00 | 0.01 | 93 | 1011.0 |
| 20260506014348 | 49 | 102 | 3.5 | 3.5 | 0.00 | 0.00 | 0.01 | 93 | 1011.0 |
| 20260506013748 | 49 | 114 | 6.1 | 6.1 | 0.00 | 0.00 | 0.01 | 93 | 1011.0 |
| 20260506013245 | 49 | 246 | 2.6 | 2.6 | 0.00 | 0.00 | 0.01 | 93 | 1011.0 |
| 20260506012714 | 49 | 165 | 2.6 | 2.6 | 0.00 | 0.00 | 0.01 | 93 | 1011.0 |
| 20260506003537 | 49 | 150 | 3.5 | 3.5 | 0.00 | 0.00 | 0.01 | 92 | 1011.0 |
| 20260506003020 | 48 | 72 | 2.6 | 2.6 | 0.00 | 0.00 | 0.01 | 92 | 1011.0 |
| 20260506002511 | 49 | 169 | 2.6 | 2.6 | 0.00 | 0.00 | 0.01 | 92 | 1011.0 |
| 20260506000541 | 48 | 179 | 2.6 | 2.6 | 0.00 | 0.00 | 0.01 | 92 | 1011.0 |
| 20260506000009 | 48 | 144 | 2.6 | 2.6 | 0.00 | 0.00 | 0.01 | 93 | 1011.0 |
| 20260505235122 | 49 | 245 | 2.6 | 2.6 | 0.00 | 0.00 | 0.01 | 93 | 1011.0 |
| 20260505234451 | 49 | 184 | 2.6 | 2.6 | 0.00 | 0.00 | 0.01 | 93 | 1011.0 |
| 20260505234423 | 49 | 201 | 5.2 | 5.2 | 0.00 | 0.00 | 0.01 | 93 | 1011.0 |
| 20260505233947 | 48 | 60 | 2.6 | 2.6 | 0.00 | 0.00 | 0.01 | 93 | 1011.0 |
| 20260505233449 | 49 | 132 | 2.6 | 2.6 | 0.00 | 0.00 | 0.01 | 93 | 1011.0 |
| 20260505232906 | 49 | 208 | 2.6 | 2.6 | 0.00 | 0.00 | 0.01 | 94 | 1011.0 |
| 20260505232351 | 49 | 169 | 2.6 | 2.6 | 0.00 | 0.00 | 0.01 | 94 | 1011.0 |
| 20260505231758 | 49 | 138 | 2.6 | 2.6 | 0.00 | 0.00 | 0.01 | 94 | 1011.0 |
| 20260505231136 | 49 | 169 | 2.6 | 2.6 | 0.00 | 0.00 | 0.01 | 93 | 1012.0 |
| 20260505230139 | 49 | 102 | 2.6 | 2.6 | 0.00 | 0.00 | 0.01 | 94 | 1012.0 |
| 20260505225636 | 49 | 209 | 2.6 | 2.6 | 0.00 | 0.00 | 0.01 | 94 | 1012.0 |
| 20260505224337 | 49 | 234 | 2.6 | 2.6 | 0.00 | 0.00 | 0.01 | 94 | 1012.0 |
| 20260505223744 | 49 | 153 | 3.5 | 3.5 | 0.00 | 0.00 | 0.01 | 94 | 1012.0 |
| 20260505223129 | 49 | 66 | 2.6 | 2.6 | 0.00 | 0.00 | 0.01 | 94 | 1012.0 |
| 20260505222552 | 49 | 73 | 2.6 | 2.6 | 0.02 | 0.00 | 0.01 | 94 | 1012.0 |
| 20260505222026 | 49 | 153 | 7.0 | 7.0 | 0.00 | 0.00 | 0.00 | 94 | 1012.0 |
| 20260505220947 | 49 | 191 | 2.6 | 2.6 | 0.00 | 0.00 | 0.00 | 95 | 1012.0 |
| 20260505220124 | 49 | 242 | 4.3 | 4.3 | 0.00 | 0.00 | 0.00 | 95 | 1012.0 |
| 20260505215603 | 49 | 12 | 3.5 | 3.5 | 0.00 | 0.00 | 2.23 | 95 | 1011.0 |
| 20260505214942 | 49 | 138 | 3.5 | 3.5 | 0.00 | 0.00 | 2.23 | 95 | 1011.0 |
| 20260505213641 | 49 | 138 | 2.6 | 2.6 | 0.00 | 0.00 | 2.23 | 95 | 1011.0 |
| 20260505212237 | 49 | 150 | 2.6 | 2.6 | 0.00 | 0.00 | 2.23 | 95 | 1012.0 |
| 20260505211715 | 49 | 102 | 2.6 | 2.6 | 0.00 | 0.00 | 2.23 | 95 | 1012.0 |
| 20260505210022 | 49 | 120 | 2.6 | 2.6 | 0.00 | 0.00 | 2.23 | 94 | 1011.0 |
| 20260505205408 | 49 | 218 | 2.6 | 2.6 | 0.00 | 0.00 | 2.23 | 94 | 1011.0 |
| 20260505204910 | 49 | 126 | 2.6 | 2.6 | 0.00 | 0.00 | 2.23 | 94 | 1011.0 |
| 20260505204321 | 49 | 165 | 2.6 | 2.6 | 0.00 | 0.00 | 2.23 | 94 | 1011.0 |
| 20260505203408 | 49 | 218 | 3.5 | 3.5 | 0.00 | 0.00 | 2.23 | 94 | 1011.0 |
| 20260505202509 | 49 | 208 | 6.1 | 6.1 | 0.00 | 0.00 | 2.23 | 94 | 1011.0 |
| 20260505201406 | 49 | 153 | 2.6 | 2.6 | 0.00 | 0.00 | 2.23 | 94 | 1011.0 |
| 20260505200810 | 49 | 150 | 2.6 | 2.6 | 0.00 | 0.00 | 2.23 | 94 | 1011.0 |
| 20260505195859 | 49 | 170 | 2.6 | 2.6 | 0.00 | 0.00 | 2.23 | 94 | 1011.0 |
| 20260505194956 | 49 | 54 | 4.3 | 4.3 | 0.00 | 0.00 | 2.23 | 94 | 1011.0 |
| 20260505194444 | 49 | 196 | 2.6 | 2.6 | 0.00 | 0.00 | 2.23 | 94 | 1011.0 |
| 20260505193948 | 50 | 102 | 2.6 | 2.6 | 0.00 | 0.00 | 2.23 | 94 | 1011.0 |
| 20260505193251 | 50 | 126 | 2.6 | 2.6 | 0.00 | 0.00 | 2.23 | 94 | 1011.0 |
| 20260505192401 | 50 | 196 | 5.2 | 5.2 | 0.00 | 0.00 | 2.22 | 94 | 1011.0 |
| 20260505191909 | 50 | 168 | 3.5 | 3.5 | 0.00 | 0.00 | 2.22 | 94 | 1011.0 |
| 20260505191409 | 50 | 24 | 2.6 | 2.6 | 0.00 | 0.00 | 2.22 | 95 | 1011.0 |
| 20260505190846 | 50 | 144 | 3.5 | 3.5 | 0.00 | 0.00 | 2.22 | 95 | 1011.0 |
| 20260505190348 | 50 | 72 | 2.6 | 2.6 | 0.00 | 0.00 | 2.22 | 95 | 1011.0 |
| 20260505185845 | 50 | 84 | 2.6 | 2.6 | 0.00 | 0.00 | 2.22 | 95 | 1011.0 |
| 20260505185230 | 51 | 138 | 5.2 | 5.2 | 0.00 | 0.00 | 2.22 | 95 | 1011.0 |
| 20260505184737 | 51 | 66 | 2.6 | 2.6 | 0.00 | 0.00 | 2.22 | 95 | 1011.0 |
| 20260505184433 | 51 | 102 | 2.6 | 2.6 | 0.00 | 0.00 | 2.22 | 95 | 1011.0 |
| 20260505184228 | 51 | 90 | 2.6 | 2.6 | 0.00 | 0.00 | 2.22 | 95 | 1011.0 |
| 20260505183612 | 51 | 138 | 2.6 | 2.6 | 0.01 | 0.00 | 2.22 | 95 | 1011.0 |
| 20260505183101 | 51 | 132 | 2.6 | 2.6 | 0.00 | 0.00 | 2.21 | 95 | 1011.0 |
| 20260505182609 | 51 | 30 | 2.6 | 2.6 | 0.00 | 0.00 | 2.21 | 95 | 1011.0 |
| 20260505182006 | 51 | 159 | 3.5 | 3.5 | 0.00 | 0.00 | 2.21 | 95 | 1011.0 |
| 20260505181514 | 51 | 147 | 2.6 | 2.6 | 0.00 | 0.00 | 2.21 | 95 | 1011.0 |
| 20260505181018 | 51 | 186 | 2.6 | 2.6 | 0.03 | 0.00 | 2.21 | 95 | 1011.0 |
| 20260505180417 | 51 | 126 | 2.6 | 2.6 | 0.00 | 0.00 | 2.20 | 95 | 1011.0 |
| 20260505175822 | 51 | 138 | 3.5 | 3.5 | 0.00 | 0.00 | 2.20 | 95 | 1011.0 |
| 20260505175247 | 51 | 156 | 2.6 | 2.6 | 0.03 | 0.00 | 2.20 | 95 | 1011.0 |
| 20260505174752 | 51 | 165 | 7.8 | 8.7 | 0.00 | 0.00 | 2.19 | 95 | 1011.0 |
| 20260505174111 | 51 | 126 | 3.5 | 3.5 | 0.01 | 0.00 | 2.19 | 95 | 1011.0 |
| 20260505173614 | 51 | 174 | 4.3 | 4.3 | 0.00 | 0.00 | 2.18 | 95 | 1011.0 |
| 20260505172955 | 51 | 126 | 2.6 | 2.6 | 0.00 | 0.00 | 2.18 | 95 | 1011.0 |
| 20260505172503 | 51 | 102 | 3.5 | 3.5 | 0.04 | 0.00 | 2.18 | 95 | 1011.0 |
| 20260505172217 | 51 | 126 | 3.5 | 3.5 | 0.00 | 0.00 | 2.17 | 95 | 1011.0 |
| 20260505172004 | 51 | 245 | 3.5 | 3.5 | 0.00 | 0.00 | 2.17 | 95 | 1011.0 |
| 20260505171441 | 51 | 72 | 3.5 | 3.5 | 0.01 | 0.00 | 2.17 | 95 | 1011.0 |
| 20260505170948 | 51 | 18 | 2.6 | 2.6 | 0.00 | 0.00 | 2.16 | 95 | 1011.0 |
| 20260505170748 | 51 | 78 | 3.5 | 3.5 | 0.00 | 0.00 | 2.16 | 95 | 1011.0 |
| 20260505170447 | 51 | 192 | 4.3 | 4.3 | 0.01 | 0.00 | 2.16 | 95 | 1011.0 |
| 20260505165913 | 50 | 73 | 2.6 | 2.6 | 0.00 | 0.00 | 2.15 | 95 | 1011.0 |
| 20260505165202 | 50 | 108 | 2.6 | 2.6 | 0.02 | 0.00 | 2.15 | 95 | 1011.0 |
| 20260505164907 | 50 | 120 | 2.6 | 2.6 | 0.00 | 0.00 | 2.14 | 95 | 1011.0 |
| 20260505164702 | 50 | 179 | 2.6 | 2.6 | 0.00 | 0.00 | 2.14 | 95 | 1011.0 |
| 20260505164158 | 50 | 108 | 2.6 | 2.6 | 0.02 | 0.00 | 2.14 | 95 | 1011.0 |
| 20260505163504 | 50 | 162 | 5.2 | 6.1 | 0.00 | 0.00 | 2.13 | 95 | 1011.0 |
| 20260505162956 | 50 | 150 | 5.2 | 5.2 | 0.02 | 0.00 | 2.13 | 94 | 1011.0 |
| 20260505162506 | 51 | 156 | 5.2 | 5.2 | 0.01 | 0.00 | 2.12 | 95 | 1011.0 |
| 20260505162320 | 51 | 242 | 4.3 | 4.3 | 0.02 | 0.00 | 2.12 | 95 | 1011.0 |
| 20260505161935 | 51 | 132 | 2.6 | 2.6 | 0.12 | 0.00 | 2.12 | 95 | 1011.0 |
| 20260505161414 | 51 | 174 | 2.6 | 2.6 | 0.03 | 0.00 | 2.11 | 95 | 1011.0 |
| 20260505161331 | 51 | 138 | 2.6 | 2.6 | 0.04 | 0.00 | 2.11 | 95 | 1011.0 |
| 20260505160920 | 51 | 144 | 2.6 | 2.6 | 0.00 | 0.00 | 2.10 | 95 | 1011.0 |
| 20260505160332 | 51 | 174 | 5.2 | 5.2 | 0.04 | 0.00 | 2.10 | 95 | 1011.0 |
| 20260505153101 | 51 | 144 | 2.6 | 2.6 | 0.06 | 0.00 | 2.05 | 95 | 1010.0 |
| 20260505152545 | 51 | 62 | 3.5 | 3.5 | 0.00 | 0.00 | 2.04 | 95 | 1010.0 |
| 20260505152054 | 52 | 132 | 4.3 | 4.3 | 0.00 | 0.00 | 2.03 | 95 | 1010.0 |
| 20260505151525 | 51 | 162 | 2.6 | 2.6 | 0.00 | 0.00 | 2.03 | 95 | 1010.0 |
| 20260505151027 | 51 | 72 | 4.3 | 4.3 | 0.00 | 0.00 | 2.03 | 94 | 1010.0 |
| 20260505150526 | 51 | 120 | 2.6 | 2.6 | 0.04 | 0.00 | 2.03 | 95 | 1010.0 |
| 20260505140347 | 51 | 201 | 6.1 | 6.1 | 0.04 | 0.00 | 1.93 | 95 | 1010.0 |
| 20260505124933 | 52 | 107 | 3.5 | 3.5 | 0.02 | 0.00 | 1.82 | 95 | 1010.0 |
| 20260505124215 | 52 | 78 | 3.5 | 3.5 | 0.04 | 0.00 | 1.81 | 95 | 1010.0 |
| 20260505123312 | 52 | 61 | 2.6 | 2.6 | 0.04 | 0.00 | 1.80 | 95 | 1010.0 |
| 20260505121655 | 52 | 178 | 3.5 | 3.5 | 0.04 | 0.00 | 1.77 | 95 | 1010.0 |
| 20260505121028 | 52 | 242 | 5.2 | 5.2 | 0.06 | 0.00 | 1.76 | 94 | 1010.0 |
| 20260505120523 | 51 | 72 | 4.3 | 4.3 | 0.09 | 0.00 | 1.75 | 95 | 1010.0 |
| 20260505120024 | 51 | 312 | 4.3 | 4.3 | 0.05 | 0.00 | 1.74 | 95 | 1010.0 |
| 20260505115533 | 51 | 78 | 2.6 | 2.6 | 0.07 | 0.00 | 1.73 | 95 | 1010.0 |
| 20260505114922 | 51 | 90 | 2.6 | 2.6 | 0.07 | 0.00 | 1.72 | 95 | 1010.0 |
| 20260505114417 | 51 | 258 | 9.6 | 10.4 | 0.08 | 0.00 | 1.71 | 95 | 1010.0 |
| 20260505113833 | 51 | 150 | 5.2 | 6.1 | 0.12 | 0.00 | 1.70 | 95 | 1010.0 |
| 20260505113335 | 51 | 42 | 2.6 | 2.6 | 0.11 | 0.00 | 1.69 | 95 | 1010.0 |
| 20260505112841 | 51 | 90 | 2.6 | 2.6 | 0.04 | 0.00 | 1.67 | 95 | 1010.0 |
| 20260505112348 | 52 | 223 | 3.5 | 3.5 | 0.10 | 0.00 | 1.66 | 95 | 1010.0 |
| 20260505111723 | 52 | 100 | 3.5 | 3.5 | 0.10 | 0.00 | 1.64 | 95 | 1010.0 |
| 20260505111222 | 52 | 203 | 2.6 | 2.6 | 0.12 | 0.00 | 1.63 | 95 | 1010.0 |
| 20260505110647 | 52 | 12 | 2.6 | 2.6 | 0.03 | 0.00 | 1.61 | 95 | 1010.0 |
| 20260505110144 | 52 | 156 | 3.5 | 3.5 | 0.06 | 0.00 | 1.60 | 95 | 1010.0 |
| 20260505101937 | 52 | 82 | 2.6 | 2.6 | 0.12 | 0.00 | 1.49 | 96 | 1010.0 |
| 20260505101419 | 52 | 84 | 3.5 | 3.5 | 0.08 | 0.00 | 1.47 | 95 | 1010.0 |
| 20260505100928 | 52 | 24 | 3.5 | 3.5 | 0.22 | 0.00 | 1.46 | 96 | 1010.0 |
| 20260505100353 | 52 | 138 | 3.5 | 3.5 | 0.20 | 0.00 | 1.44 | 96 | 1010.0 |
| 20260505095855 | 52 | 90 | 3.5 | 3.5 | 0.18 | 0.00 | 1.42 | 96 | 1010.0 |
| 20260505095355 | 52 | 240 | 2.6 | 2.6 | 0.06 | 0.00 | 1.40 | 96 | 1010.0 |
| 20260505094859 | 52 | 185 | 2.6 | 2.6 | 0.07 | 0.00 | 1.39 | 96 | 1010.0 |
| 20260505094358 | 52 | 102 | 2.6 | 2.6 | 0.10 | 0.00 | 1.38 | 95 | 1010.0 |
| 20260505093842 | 52 | 190 | 3.5 | 3.5 | 0.07 | 0.00 | 1.37 | 96 | 1010.0 |
| 20260505093340 | 52 | 66 | 3.5 | 3.5 | 0.09 | 0.00 | 1.36 | 96 | 1010.0 |
| 20260505092816 | 52 | 179 | 3.5 | 3.5 | 0.06 | 0.00 | 1.35 | 96 | 1010.0 |
| 20260505092312 | 52 | 114 | 2.6 | 2.6 | 0.08 | 0.00 | 1.34 | 96 | 1010.0 |
| 20260505091809 | 52 | 209 | 3.5 | 3.5 | 0.06 | 0.00 | 1.33 | 96 | 1010.0 |
| 20260505091251 | 52 | 10 | 3.5 | 3.5 | 0.02 | 0.00 | 1.32 | 96 | 1010.0 |
| 20260505090714 | 52 | 184 | 3.5 | 3.5 | 0.00 | 0.00 | 1.31 | 96 | 1010.0 |
| 20260505090210 | 52 | 174 | 2.6 | 2.6 | 0.05 | 0.00 | 1.31 | 96 | 1010.0 |
| 20260505085701 | 52 | 216 | 6.1 | 6.1 | 0.00 | 0.00 | 1.30 | 96 | 1010.0 |
| 20260505085205 | 52 | 66 | 5.2 | 6.1 | 0.05 | 0.00 | 1.30 | 96 | 1010.0 |
| 20260505084715 | 52 | 156 | 4.3 | 4.3 | 0.08 | 0.00 | 1.29 | 96 | 1010.0 |
| 20260505084214 | 52 | 66 | 5.2 | 6.1 | 0.10 | 0.00 | 1.28 | 96 | 1010.0 |
| 20260505083722 | 52 | 159 | 3.5 | 3.5 | 0.03 | 0.00 | 1.26 | 96 | 1010.0 |
| 20260505083058 | 52 | 144 | 3.5 | 3.5 | 0.13 | 0.00 | 1.25 | 96 | 1010.0 |
| 20260505082418 | 52 | 174 | 6.1 | 7.0 | 0.03 | 0.00 | 1.23 | 96 | 1010.0 |
| 20260505081910 | 52 | 138 | 2.6 | 2.6 | 0.01 | 0.00 | 1.22 | 96 | 1010.0 |
| 20260505081340 | 52 | 168 | 3.5 | 3.5 | 0.02 | 0.00 | 1.21 | 96 | 1010.0 |
| 20260505080823 | 52 | 72 | 3.5 | 3.5 | 0.02 | 0.00 | 1.20 | 96 | 1010.0 |
| 20260505075434 | 52 | 102 | 7.0 | 7.8 | 0.13 | 0.00 | 1.18 | 96 | 1010.0 |
| 20260505074745 | 52 | 288 | 2.6 | 2.6 | 0.02 | 0.00 | 1.16 | 96 | 1010.0 |
| 20260505074145 | 52 | 242 | 7.0 | 7.8 | 0.03 | 0.00 | 1.15 | 96 | 1010.0 |
| 20260505073650 | 52 | 120 | 3.5 | 3.5 | 0.03 | 0.00 | 1.14 | 96 | 1010.0 |
| 20260505072958 | 52 | 180 | 2.6 | 2.6 | 0.04 | 0.00 | 1.13 | 96 | 1010.0 |
| 20260505072456 | 52 | 198 | 2.6 | 2.6 | 0.07 | 0.00 | 1.12 | 96 | 1010.0 |
| 20260505071747 | 52 | 12 | 2.6 | 2.6 | 0.01 | 0.00 | 1.10 | 96 | 1010.0 |
| 20260505071245 | 52 | 150 | 3.5 | 3.5 | 0.00 | 0.00 | 1.09 | 96 | 1010.0 |
| 20260505070722 | 52 | 207 | 3.5 | 3.5 | 0.05 | 0.00 | 1.09 | 96 | 1010.0 |
| 20260505070144 | 52 | 150 | 3.5 | 3.5 | 0.00 | 0.00 | 1.08 | 96 | 1010.0 |
| 20260505065630 | 52 | 168 | 3.5 | 3.5 | 0.00 | 0.00 | 1.07 | 96 | 1010.0 |
| 20260505065128 | 52 | 144 | 3.5 | 3.5 | 0.04 | 0.00 | 1.07 | 96 | 1010.0 |
| 20260505064345 | 52 | 108 | 2.6 | 2.6 | 0.12 | 0.00 | 1.06 | 96 | 1010.0 |
| 20260505063307 | 52 | 164 | 2.6 | 2.6 | 0.00 | 0.00 | 1.03 | 96 | 1010.0 |
| 20260505063021 | 52 | 198 | 2.6 | 2.6 | 0.00 | 0.00 | 1.03 | 96 | 1010.0 |
| 20260505062537 | 52 | 186 | 5.2 | 6.1 | 0.05 | 0.00 | 1.03 | 96 | 1010.0 |
| 20260505061910 | 52 | 114 | 2.6 | 2.6 | 0.02 | 0.00 | 1.02 | 96 | 1010.0 |
| 20260505061104 | 52 | 106 | 3.5 | 3.5 | 0.08 | 0.00 | 1.01 | 96 | 1010.0 |
| 20260505060951 | 52 | 264 | 2.6 | 2.6 | 0.12 | 0.00 | 1.01 | 96 | 1010.0 |
| 20260505060555 | 52 | 290 | 3.5 | 3.5 | 0.03 | 0.00 | 1.00 | 96 | 1010.0 |
| 20260505055447 | 52 | 215 | 2.6 | 2.6 | 0.00 | 0.00 | 0.98 | 96 | 1010.0 |
| 20260505054510 | 52 | 108 | 3.5 | 3.5 | 0.01 | 0.00 | 0.98 | 96 | 1010.0 |
| 20260505053503 | 52 | 108 | 2.6 | 2.6 | 0.00 | 0.00 | 0.97 | 96 | 1010.0 |
| 20260505052914 | 51 | 78 | 2.6 | 2.6 | 0.00 | 0.00 | 0.97 | 96 | 1010.0 |
| 20260505052356 | 52 | 234 | 7.8 | 7.8 | 0.02 | 0.00 | 0.97 | 96 | 1010.0 |
| 20260505052152 | 52 | 239 | 2.6 | 2.6 | 0.04 | 0.00 | 0.97 | 96 | 1010.0 |